Tracking 28336 objects as of 4-Dec-2023
HD Live streaming from Space Station
objects crossing your sky now

ION SCV-010

Track ION SCV-010 now!
10-day predictions
ION SCV-010 is classified as:


NORAD ID: 56192
Int'l Code: 2023-054Q
Perigee: 551.4 km
Apogee: 571.1 km
Inclination: 97.5 °
Period: 95.7 minutes
Semi major axis: 6932 km
RCS: Unknown
Launch date: April 15, 2023
Source: Italy (IT)
Launch site: AIR FORCE WESTERN TEST RANGE (AFWTR)

Uplink (MHz):
Downlink (MHz): 401.415
Beacon (MHz):
Mode: 1k2 FSK
Call sign:
Status: Active

Your satellite tracking list
Your tracking list is empty




NASA's NSSDC Master Catalog

Two Line Element Set (TLE):
1 56192U 23054Q   23337.57496660  .00004838  00000-0  35220-3 0  9996
2 56192  97.4903 227.2517 0014245  70.6235 289.6530 15.04157975 35625
Source of the keplerian elements: AFSPC